Limon, CO

1:20 PM MDT on April 27, 2017 (GMT -0600)
Limon Municipal

Weather History for KLIC - May, 2013

Change the Weather History Date:

Monday, May 20, 2013

  Actual Average Record
Temperature  
Mean Temperature 52 °F -  
Max Temperature 63 °F - 89 °F (2005)
Min Temperature 40 °F - 30 °F (2001)
Degree Days  
Heating Degree Days 13    
Month to date heating degree days 261  
Cooling Degree Days 0    
Month to date cooling degree days 5  
Growing Degree Days 1 (Base 50)    
Moisture  
Dew Point 41 °F    
Average Humidity 68    
Maximum Humidity 93    
Minimum Humidity 42    
Precipitation  
Precipitation 0.02 in - 0.09 in (2001)
Month to date precipitation 1.87  
Year to date precipitation 4.37  
Sea Level Pressure  
Sea Level Pressure 29.86 in    
Wind  
Wind Speed 8 mph (NNW)    
Max Wind Speed 31 mph    
Max Gust Speed 43 mph    
Visibility 10 miles    
Events Rain , Thunderstorm    
T = Trace of Precipitation, MM = Missing Value Source: NWS Daily Summary

Daily Weather History Graph

Daily Weather History Graph

Search for Another Location

Airport or City:

Trip Planner

Search our weather history database for the weather conditions in past years. The results will help you decide how hot, cold, wet, or windy it might be!

Date:

Astronomy

May. 20, 2013 Rise Set
Actual Time 5:36 AM MDT 8:06 PM MDT
Civil Twilight 5:06 AM MDT 8:36 PM MDT
Nautical Twilight 4:28 AM MDT 9:15 PM MDT
Astronomical Twilight 3:45 AM MDT 9:57 PM MDT
Moon 3:17 PM MDT (5/20) 2:31 AM MDT (5/20)
Length of Visible Light 15h 30m
Length of Day
14h 29m
Waxing Gibbous, 75% of the Moon is Illuminated
May 20
Waxing Gibbous
May 24
Full
May 31
Last Quarter
Jun 8
New
Jun 16
First Quarter

Hourly Weather History & Observations

Time (MDT) Temp. Windchill Dew Point Humidity Pressure Visibility Wind Dir Wind Speed Gust Speed Precip Events Conditions
12:55 AM 43.0 °F - 39.9 °F 89% 29.75 in 10.0 mi Calm Calm - N/A   Clear
2:55 AM 41.0 °F 38.0 °F 39.0 °F 93% 29.80 in 10.0 mi NNW 4.6 mph - N/A   Clear
3:55 AM 42.1 °F 37.1 °F 39.9 °F 92% 29.81 in 10.0 mi NNW 8.1 mph - N/A   Clear
4:55 AM 46.0 °F 41.0 °F 41.0 °F 83% 29.80 in 10.0 mi NW 10.4 mph - N/A   Mostly Cloudy
5:28 AM 44.6 °F 39.7 °F 42.8 °F 93% 29.91 in 10.0 mi NNW 9.2 mph - N/A   Mostly Cloudy
5:45 AM 44.6 °F 39.7 °F 41.0 °F 87% 29.92 in 10.0 mi NNW 9.2 mph - N/A   Scattered Clouds
6:55 AM 46.0 °F 41.0 °F 42.1 °F 86% 29.83 in 10.0 mi NW 10.4 mph - N/A   Clear
8:55 AM 48.9 °F - 44.1 °F 83% 29.86 in 10.0 mi NW 16.1 mph - 0.00 in Rain Light Rain
9:55 AM 54.0 °F - 42.1 °F 64% 29.83 in 10.0 mi WNW 12.7 mph - 0.00 in   Partly Cloudy
10:55 AM 57.0 °F - 41.0 °F 55% 29.82 in 10.0 mi NW 17.3 mph 25.3 mph N/A   Mostly Cloudy
11:55 AM 59.0 °F - 41.0 °F 51% 29.81 in 10.0 mi Variable 6.9 mph - N/A   Scattered Clouds
12:55 PM 61.0 °F - 37.9 °F 42% 29.80 in 10.0 mi NNE 11.5 mph 27.6 mph N/A   Partly Cloudy
1:55 PM 51.1 °F - 45.0 °F 80% 29.88 in 10.0 mi NNE 10.4 mph 27.6 mph 0.02 in   Overcast
2:55 PM 55.0 °F - 44.1 °F 67% 29.86 in 10.0 mi NNW 8.1 mph - 0.00 in   Overcast
3:32 PM 55.4 °F - 42.8 °F 63% 29.93 in 10.0 mi West 5.8 mph - N/A Thunderstorm Mostly Cloudy
3:46 PM 53.6 °F - 44.6 °F 72% 29.93 in 8.0 mi Variable 6.9 mph 16.1 mph 0.00 in Rain Light Rain
3:55 PM 53.1 °F - 46.9 °F 80% 29.86 in 10.0 mi North 9.2 mph - 0.00 in Rain Light Rain
4:55 PM 54.0 °F - 44.1 °F 69% 29.85 in 10.0 mi North 8.1 mph - 0.00 in   Overcast
5:55 PM 53.1 °F - 42.1 °F 66% 29.87 in 10.0 mi North 19.6 mph 26.5 mph N/A   Overcast
6:55 PM 52.0 °F - 39.0 °F 61% 29.90 in 10.0 mi North 17.3 mph 27.6 mph 0.00 in   Overcast
8:55 PM 48.9 °F - 37.9 °F 66% 29.94 in 10.0 mi NNW 5.8 mph - N/A   Overcast
9:55 PM 48.0 °F - 39.0 °F 71% 29.94 in 10.0 mi NNW 4.6 mph - N/A   Overcast
10:55 PM 46.9 °F - 37.0 °F 68% 29.94 in 10.0 mi NNW 9.2 mph - N/A   Overcast
11:55 PM 44.1 °F 40.8 °F 39.0 °F 82% 29.92 in 10.0 mi West 5.8 mph - N/A   Mostly Cloudy